UAE182 EBBR-OMDB

Flight info

Callsign UAE182
Flight time N/A
Altitude 35000
Route SOPOK Y863 OGLOR DCT EMGOD L607 UTABA DCT BEMKI DCT ELMEM DCT DIRAB DCT PEVAL DCT IPKIS DCT AIOSA DCT XAPAT DCT NOSTO DCT SALUN N705 MMA P751 DASUM Y234 FYM M872 BOPOB/N0479F370 M872 BDB Y214 RAPMA DCT KUVSO DCT KATIT DCT PEKEM M628 RIGIL G783 ELUDA/N0473F350 G783 ASPED Q308 KIPOK Q568 IMPED
Aircraft B77W/H-SDE1E2E3FGHIJ2J3J4J5M1RWXY/LB1D1

Departure

Time 2026-05-07 20:04
Airport Brussels Airport (EBBR)

Arrival

Time N/A
Airport Dubai International Airport (OMDB)
Time Latitude Longitude Altitude Speed Heading
2026-05-07 19:18 50.90047 4.49109 135 ft 0 kts 335°
2026-05-07 19:47 50.90042 4.49112 135 ft 4 kts 336°
2026-05-07 19:47 50.90017 4.49127 134 ft 4 kts 345°
2026-05-07 19:48 50.89990 4.49135 138 ft 4 kts 357°
2026-05-07 19:48 50.89964 4.49132 140 ft 4 kts 20°
2026-05-07 19:48 50.89945 4.49112 140 ft 3 kts 64°
2026-05-07 19:48 50.89945 4.49110 141 ft 0 kts 65°
2026-05-07 19:52 50.89950 4.49128 140 ft 5 kts 65°
2026-05-07 19:53 50.89964 4.49185 140 ft 6 kts 71°
2026-05-07 19:53 50.89981 4.49258 138 ft 8 kts 67°
2026-05-07 19:53 50.90007 4.49346 136 ft 10 kts 64°
2026-05-07 19:53 50.90038 4.49442 130 ft 10 kts 63°
2026-05-07 19:54 50.90071 4.49543 134 ft 11 kts 63°
2026-05-07 19:54 50.90109 4.49659 129 ft 13 kts 63°
2026-05-07 19:54 50.90159 4.49808 134 ft 18 kts 62°
2026-05-07 19:54 50.90223 4.50004 129 ft 19 kts 63°
2026-05-07 19:55 50.90277 4.50164 125 ft 16 kts 56°
2026-05-07 19:55 50.90363 4.50268 127 ft 16 kts 21°
2026-05-07 19:55 50.90450 4.50304 127 ft 13 kts 14°
2026-05-07 19:55 50.90536 4.50339 124 ft 13 kts 15°
2026-05-07 19:56 50.90623 4.50376 124 ft 13 kts 14°
2026-05-07 19:56 50.90710 4.50412 121 ft 13 kts 14°
2026-05-07 19:56 50.90797 4.50447 121 ft 13 kts 14°
2026-05-07 19:56 50.90883 4.50483 121 ft 13 kts 14°
2026-05-07 19:57 50.90970 4.50518 121 ft 13 kts 14°
2026-05-07 19:57 50.91058 4.50529 121 ft 12 kts 355°
2026-05-07 19:57 50.91120 4.50518 120 ft 6 kts 352°
2026-05-07 19:57 50.91125 4.50517 120 ft 0 kts 350°
2026-05-07 20:01 50.91142 4.50512 123 ft 7 kts 349°
2026-05-07 20:02 50.91196 4.50466 119 ft 10 kts 319°
2026-05-07 20:02 50.91229 4.50376 122 ft 10 kts 289°
2026-05-07 20:02 50.91245 4.50275 119 ft 10 kts 268°
2026-05-07 20:02 50.91231 4.50206 123 ft 0 kts 246°
2026-05-07 20:03 50.91207 4.50123 119 ft 24 kts 245°
2026-05-07 20:03 50.91035 4.49525 120 ft 97 kts 245°
2026-05-07 20:03 50.90656 4.48216 122 ft 162 kts 245°
2026-05-07 20:04 50.90124 4.46364 297 ft 195 kts 244°
2026-05-07 20:04 50.89559 4.44454 1015 ft 194 kts 244°
2026-05-07 20:04 50.88964 4.42484 1609 ft 200 kts 244°
2026-05-07 20:04 50.88302 4.40552 2157 ft 203 kts 230°
2026-05-07 20:05 50.87093 4.39274 2300 ft 222 kts 189°
2026-05-07 20:05 50.85529 4.39618 2463 ft 242 kts 148°
2026-05-07 20:05 50.84396 4.41537 2901 ft 248 kts 119°
2026-05-07 20:05 50.83507 4.43933 3490 ft 256 kts 121°
2026-05-07 20:06 50.82564 4.46331 4265 ft 257 kts 122°
2026-05-07 20:06 50.81590 4.48721 5057 ft 259 kts 123°
2026-05-07 20:06 50.80588 4.51125 5759 ft 264 kts 123°
2026-05-07 20:06 50.79557 4.53554 6440 ft 269 kts 124°
2026-05-07 20:07 50.78494 4.56028 6996 ft 272 kts 125°
2026-05-07 20:07 50.77414 4.58515 7088 ft 278 kts 125°
2026-05-07 20:07 50.76318 4.61031 7515 ft 279 kts 124°
2026-05-07 20:07 50.75303 4.63638 8285 ft 279 kts 120°
2026-05-07 20:08 50.74352 4.66324 9005 ft 282 kts 119°
2026-05-07 20:08 50.73398 4.69060 9650 ft 286 kts 119°
2026-05-07 20:08 50.72428 4.71834 10256 ft 291 kts 120°
2026-05-07 20:08 50.71418 4.74706 10538 ft 310 kts 120°
2026-05-07 20:09 50.70330 4.77774 10721 ft 332 kts 120°
2026-05-07 20:09 50.69160 4.81058 10892 ft 354 kts 120°
2026-05-07 20:09 50.67954 4.84427 11253 ft 370 kts 120°
2026-05-07 20:10 50.65358 4.91653 12693 ft 385 kts 121°
2026-05-07 20:10 50.64026 4.95344 13588 ft 389 kts 121°
2026-05-07 20:10 50.62680 4.99059 14379 ft 394 kts 122°
2026-05-07 20:10 50.61212 5.02737 15123 ft 398 kts 125°
2026-05-07 20:11 50.59643 5.06366 15880 ft 403 kts 126°
2026-05-07 20:11 50.58028 5.10004 16629 ft 408 kts 126°
2026-05-07 20:11 50.56409 5.13632 17374 ft 413 kts 126°
2026-05-07 20:11 50.54755 5.17348 18129 ft 418 kts 126°
2026-05-07 20:12 50.53080 5.21128 18800 ft 422 kts 126°
2026-05-07 20:12 50.51377 5.24987 19438 ft 427 kts 126°
2026-05-07 20:12 50.49705 5.28788 20095 ft 431 kts 126°
2026-05-07 20:12 50.47995 5.32679 20736 ft 435 kts 126°
2026-05-07 20:13 50.46267 5.36606 21373 ft 439 kts 126°
2026-05-07 20:13 50.44523 5.40571 21996 ft 444 kts 126°
2026-05-07 20:13 50.42762 5.44564 22612 ft 448 kts 126°
2026-05-07 20:13 50.40981 5.48600 23223 ft 452 kts 126°
2026-05-07 20:14 50.39183 5.52668 23775 ft 456 kts 126°
2026-05-07 20:14 50.37367 5.56768 24268 ft 460 kts 126°
2026-05-07 20:14 50.35536 5.60896 24767 ft 463 kts 126°
2026-05-07 20:14 50.33691 5.65049 25275 ft 466 kts 126°
2026-05-07 20:15 50.31832 5.69227 25744 ft 469 kts 126°
2026-05-07 20:15 50.29962 5.73422 26214 ft 472 kts 126°
2026-05-07 20:15 50.28073 5.77654 26664 ft 476 kts 126°
2026-05-07 20:15 50.26169 5.81911 27092 ft 479 kts 126°
2026-05-07 20:16 50.24249 5.86197 27521 ft 482 kts 126°
2026-05-07 20:16 50.22318 5.90501 27945 ft 485 kts 126°
2026-05-07 20:16 50.20368 5.94839 28351 ft 488 kts 126°
2026-05-07 20:16 50.18413 5.99184 28744 ft 491 kts 126°
2026-05-07 20:17 50.16537 6.03344 29119 ft 493 kts 126°
2026-05-07 20:17 50.14771 6.07256 29446 ft 495 kts 127°
2026-05-07 20:17 50.12782 6.11655 29909 ft 495 kts 127°
2026-05-07 20:17 50.10802 6.16027 30398 ft 493 kts 127°
2026-05-07 20:18 50.08853 6.20324 30838 ft 492 kts 127°
2026-05-07 20:18 50.06877 6.24672 31227 ft 492 kts 127°
2026-05-07 20:18 50.04902 6.29012 31614 ft 492 kts 127°
2026-05-07 20:18 50.02924 6.33351 31990 ft 491 kts 127°
2026-05-07 20:19 50.00948 6.37677 32366 ft 490 kts 127°
2026-05-07 20:19 49.98973 6.41993 32744 ft 489 kts 127°
2026-05-07 20:19 49.97001 6.46296 33121 ft 489 kts 127°
2026-05-07 20:19 49.95030 6.50591 33482 ft 488 kts 127°
2026-05-07 20:20 49.93720 6.53442 33714 ft 488 kts 127°
2026-05-07 20:20 49.91083 6.59171 34167 ft 487 kts 127°
2026-05-07 20:20 49.89113 6.63441 34426 ft 487 kts 127°
2026-05-07 20:20 49.87134 6.67725 34662 ft 488 kts 127°
2026-05-07 20:21 49.85157 6.71997 34912 ft 488 kts 127°
2026-05-07 20:21 49.81169 6.80594 35039 ft 493 kts 127°
2026-05-07 20:22 49.77178 6.89169 35053 ft 488 kts 127°
2026-05-07 20:22 49.73213 6.97656 35063 ft 486 kts 128°
2026-05-07 20:23 49.69356 7.05890 35070 ft 485 kts 128°
2026-05-07 20:23 49.65393 7.14326 35071 ft 486 kts 128°
2026-05-07 20:24 49.61417 7.22764 35066 ft 487 kts 128°
2026-05-07 20:24 49.57423 7.31213 35070 ft 488 kts 128°
2026-05-07 20:25 49.53415 7.39665 35068 ft 489 kts 128°
2026-05-07 20:25 49.49388 7.48127 35062 ft 489 kts 128°
2026-05-07 20:26 49.45381 7.56523 35067 ft 490 kts 128°
2026-05-07 20:26 49.41338 7.64967 35064 ft 491 kts 128°
2026-05-07 20:27 49.37286 7.73404 35069 ft 491 kts 128°
2026-05-07 20:27 49.33220 7.81843 35064 ft 491 kts 128°
2026-05-07 20:28 49.29155 7.90251 35062 ft 491 kts 128°
2026-05-07 20:28 49.25085 7.98646 35069 ft 490 kts 128°
2026-05-07 20:29 49.21094 8.06853 35061 ft 491 kts 129°
2026-05-07 20:29 49.17009 8.15225 35061 ft 492 kts 129°
2026-05-07 20:30 49.12907 8.23605 35059 ft 492 kts 129°
2026-05-07 20:30 49.08823 8.31923 35071 ft 493 kts 129°
2026-05-07 20:31 49.04703 8.40290 35079 ft 493 kts 129°
2026-05-07 20:31 49.00575 8.48644 35068 ft 494 kts 129°
2026-05-07 20:32 48.96441 8.56987 35066 ft 494 kts 129°
2026-05-07 20:32 48.92970 8.63971 35074 ft 494 kts 129°
2026-05-07 20:33 48.88853 8.72231 35074 ft 494 kts 129°
2026-05-07 20:33 48.84697 8.80544 35056 ft 494 kts 129°
2026-05-07 20:34 48.80534 8.88847 35077 ft 494 kts 129°
2026-05-07 20:34 48.76362 8.97140 35074 ft 495 kts 129°
2026-05-07 20:35 48.72245 9.05301 35064 ft 495 kts 130°
2026-05-07 20:35 48.68054 9.13587 35072 ft 495 kts 130°
2026-05-07 20:36 48.63757 9.21716 35066 ft 492 kts 137°
2026-05-07 20:36 48.61177 9.25065 35080 ft 488 kts 148°
2026-05-07 20:36 48.58309 9.27789 35086 ft 485 kts 155°
2026-05-07 20:37 48.52079 9.31523 35085 ft 482 kts 164°
2026-05-07 20:37 48.45752 9.34920 35076 ft 484 kts 163°
2026-05-07 20:38 48.39418 9.38433 35081 ft 485 kts 163°
2026-05-07 20:38 48.33122 9.41960 35076 ft 485 kts 163°
2026-05-07 20:39 48.26874 9.45842 35078 ft 489 kts 155°
2026-05-07 20:39 48.21134 9.51380 35067 ft 494 kts 144°
2026-05-07 20:40 48.15844 9.57937 35074 ft 494 kts 143°
2026-05-07 20:40 48.10563 9.64521 35074 ft 494 kts 143°
2026-05-07 20:41 48.05260 9.71048 35068 ft 494 kts 144°
2026-05-07 20:41 47.99940 9.77539 35070 ft 494 kts 144°
2026-05-07 20:42 47.94614 9.84014 35065 ft 494 kts 144°
2026-05-07 20:42 47.90041 9.89562 35070 ft 494 kts 144°
2026-05-07 20:43 47.84706 9.96020 35074 ft 494 kts 144°
2026-05-07 20:43 47.79473 10.02340 35066 ft 495 kts 144°
2026-05-07 20:44 47.74166 10.08745 35061 ft 494 kts 144°
2026-05-07 20:44 47.68815 10.15170 35060 ft 495 kts 144°
2026-05-07 20:45 47.63455 10.21580 35073 ft 495 kts 144°
2026-05-07 20:45 47.58090 10.27989 35073 ft 496 kts 144°
2026-05-07 20:46 47.52542 10.34009 35061 ft 493 kts 151°
2026-05-07 20:46 47.46783 10.39533 35087 ft 494 kts 151°
2026-05-07 20:47 47.41011 10.45087 35055 ft 495 kts 151°
2026-05-07 20:47 47.35259 10.50661 35061 ft 494 kts 151°
2026-05-07 20:48 47.29513 10.56220 35056 ft 493 kts 151°
2026-05-07 20:48 47.23837 10.61926 35076 ft 495 kts 149°
2026-05-07 20:49 47.18292 10.67835 35074 ft 495 kts 148°
2026-05-07 20:49 47.12709 10.73747 35076 ft 494 kts 149°
2026-05-07 20:50 47.07107 10.79602 35064 ft 494 kts 150°
2026-05-07 20:50 47.01493 10.85431 35074 ft 496 kts 150°
2026-05-07 20:51 46.95851 10.91277 35081 ft 499 kts 150°
2026-05-07 20:51 46.90167 10.97159 35081 ft 501 kts 149°
2026-05-07 20:52 46.84580 11.02927 35072 ft 501 kts 149°
2026-05-07 20:52 46.79178 11.09333 35055 ft 508 kts 139°
2026-05-07 20:53 46.74305 11.16771 35060 ft 506 kts 138°
2026-05-07 20:53 46.69459 11.24199 35073 ft 505 kts 138°
2026-05-07 20:54 46.64597 11.31554 35007 ft 503 kts 139°
2026-05-07 20:54 46.59735 11.38834 34963 ft 500 kts 139°
2026-05-07 20:55 46.54888 11.46074 35000 ft 500 kts 139°
2026-05-07 20:55 46.50034 11.53310 35016 ft 501 kts 139°
2026-05-07 20:56 46.45165 11.60549 35027 ft 502 kts 139°
2026-05-07 20:56 46.40274 11.67805 35044 ft 502 kts 139°
2026-05-07 20:57 46.35379 11.75048 35035 ft 503 kts 139°
2026-05-07 20:57 46.30472 11.82277 35045 ft 503 kts 139°
2026-05-07 20:58 46.25570 11.89498 35052 ft 503 kts 139°
2026-05-07 20:58 46.20666 11.96696 35035 ft 502 kts 139°
2026-05-07 20:59 46.15859 12.03729 35017 ft 502 kts 139°
2026-05-07 20:59 46.10990 12.10835 35053 ft 501 kts 140°
2026-05-07 21:00 46.06065 12.17993 35035 ft 504 kts 140°
2026-05-07 21:00 46.01123 12.25166 35036 ft 506 kts 140°
2026-05-07 21:01 45.96175 12.32331 35025 ft 507 kts 140°
2026-05-07 21:01 45.91204 12.39510 35020 ft 507 kts 140°
2026-05-07 21:02 45.86229 12.46675 35013 ft 506 kts 140°
2026-05-07 21:02 45.81258 12.53813 35030 ft 505 kts 140°
2026-05-07 21:03 45.76291 12.60927 35012 ft 505 kts 140°
2026-05-07 21:03 45.71319 12.68029 35024 ft 505 kts 140°
2026-05-07 21:04 45.66340 12.75121 35025 ft 504 kts 140°
2026-05-07 21:04 45.61368 12.82186 35013 ft 504 kts 140°
2026-05-07 21:05 45.56424 12.89192 35022 ft 504 kts 140°
2026-05-07 21:05 45.51436 12.96242 35004 ft 504 kts 141°
2026-05-07 21:06 45.46544 13.03137 35022 ft 505 kts 141°
2026-05-07 21:06 45.41547 13.10164 35026 ft 505 kts 141°
2026-05-07 21:07 45.36543 13.17185 35024 ft 505 kts 141°
2026-05-07 21:07 45.31525 13.24191 35031 ft 505 kts 142°
2026-05-07 21:08 45.26187 13.30545 35039 ft 500 kts 148°
2026-05-07 21:08 45.20724 13.36661 35037 ft 500 kts 148°
2026-05-07 21:09 45.15261 13.42795 35023 ft 500 kts 148°
2026-05-07 21:09 45.09813 13.48947 35038 ft 500 kts 148°
2026-05-07 21:10 45.04409 13.55050 35043 ft 500 kts 148°
2026-05-07 21:10 44.98976 13.61170 35060 ft 500 kts 148°
2026-05-07 21:11 44.93537 13.67278 35048 ft 499 kts 148°
2026-05-07 21:11 44.85383 13.76405 35072 ft 498 kts 148°
2026-05-07 21:12 44.79945 13.82472 35060 ft 498 kts 148°
2026-05-07 21:12 44.74506 13.88527 35067 ft 498 kts 148°
2026-05-07 21:13 44.69066 13.94567 35052 ft 498 kts 148°
2026-05-07 21:13 44.64124 14.00041 35059 ft 499 kts 148°
2026-05-07 21:14 44.58784 14.05944 35053 ft 500 kts 148°
2026-05-07 21:14 44.53311 14.11978 35045 ft 500 kts 148°
2026-05-07 21:15 44.47834 14.18004 35033 ft 500 kts 149°
2026-05-07 21:15 44.42350 14.24022 35047 ft 500 kts 149°
2026-05-07 21:16 44.36869 14.30042 35039 ft 502 kts 147°
2026-05-07 21:16 44.31636 14.36560 35036 ft 505 kts 144°
2026-05-07 21:17 44.26469 14.43200 35034 ft 505 kts 144°
2026-05-07 21:17 44.21291 14.49821 35042 ft 505 kts 144°
2026-05-07 21:18 44.16131 14.56366 35051 ft 505 kts 144°
2026-05-07 21:18 44.10922 14.62944 35051 ft 505 kts 144°
2026-05-07 21:19 44.05710 14.69508 35051 ft 505 kts 144°
2026-05-07 21:19 44.01376 14.74957 35049 ft 505 kts 145°
2026-05-07 21:20 43.96179 14.81476 35043 ft 505 kts 145°
2026-05-07 21:20 43.90963 14.88003 35045 ft 505 kts 145°
2026-05-07 21:21 43.85738 14.94525 35042 ft 505 kts 145°
2026-05-07 21:21 43.80605 15.00916 35047 ft 504 kts 145°
2026-05-07 21:22 43.75381 15.07406 35050 ft 504 kts 145°
2026-05-07 21:22 43.70155 15.13882 35053 ft 504 kts 145°
2026-05-07 21:23 43.64930 15.20341 35051 ft 504 kts 145°
2026-05-07 21:23 43.59697 15.26793 35050 ft 504 kts 145°
2026-05-07 21:24 43.54509 15.33176 35039 ft 503 kts 145°
2026-05-07 21:24 43.49340 15.39519 35043 ft 502 kts 145°
2026-05-07 21:25 43.44118 15.45912 35052 ft 503 kts 146°
2026-05-07 21:25 43.38888 15.52298 35050 ft 503 kts 146°
2026-05-07 21:26 43.33651 15.58679 35034 ft 503 kts 145°
2026-05-07 21:26 43.28420 15.65037 35028 ft 502 kts 145°
2026-05-07 21:27 43.23195 15.71374 35040 ft 501 kts 145°
2026-05-07 21:27 43.17969 15.77696 35040 ft 500 kts 145°
2026-05-07 21:28 43.12752 15.83992 35043 ft 499 kts 145°
2026-05-07 21:28 43.07543 15.90261 35034 ft 498 kts 145°
2026-05-07 21:29 43.02338 15.96514 35043 ft 498 kts 145°
2026-05-07 21:29 42.97276 16.02580 35035 ft 498 kts 145°
2026-05-07 21:30 42.92064 16.08810 35038 ft 498 kts 145°
2026-05-07 21:30 42.86847 16.15032 35020 ft 498 kts 145°
2026-05-07 21:31 42.81634 16.21237 35034 ft 497 kts 145°
2026-05-07 21:31 42.76572 16.27247 35040 ft 496 kts 145°
2026-05-07 21:32 42.71432 16.33336 35035 ft 496 kts 145°
2026-05-07 21:32 42.66256 16.39453 35032 ft 496 kts 145°
2026-05-07 21:33 42.61290 16.45308 35025 ft 495 kts 144°
2026-05-07 21:33 42.56066 16.51453 35044 ft 497 kts 144°
2026-05-07 21:34 42.50836 16.57592 35039 ft 498 kts 144°
2026-05-07 21:34 42.45584 16.63743 35047 ft 499 kts 144°
2026-05-07 21:35 42.40322 16.69892 35041 ft 500 kts 144°
2026-05-07 21:35 42.35127 16.75949 35035 ft 500 kts 145°
2026-05-07 21:36 42.29848 16.82089 35037 ft 501 kts 145°
2026-05-07 21:36 42.24558 16.88229 35037 ft 501 kts 145°
2026-05-07 21:37 42.19263 16.94359 35039 ft 502 kts 145°
2026-05-07 21:37 42.14045 17.00389 35020 ft 501 kts 145°
2026-05-07 21:38 42.08750 17.06493 35033 ft 500 kts 146°
2026-05-07 21:38 42.03500 17.12532 35033 ft 500 kts 146°
2026-05-07 21:39 41.98231 17.18580 35035 ft 499 kts 146°
2026-05-07 21:39 41.92910 17.24561 35037 ft 496 kts 149°
2026-05-07 21:40 41.87168 17.29495 35032 ft 487 kts 157°
2026-05-07 21:40 41.81323 17.34114 35035 ft 487 kts 157°
2026-05-07 21:41 41.75491 17.38753 35036 ft 487 kts 157°
2026-05-07 21:41 41.69672 17.43416 35031 ft 488 kts 157°
2026-05-07 21:42 41.63877 17.48065 35027 ft 489 kts 158°
2026-05-07 21:42 41.58036 17.52738 35040 ft 490 kts 158°
2026-05-07 21:43 41.52166 17.57424 35041 ft 492 kts 158°
2026-05-07 21:43 41.46280 17.62112 35036 ft 493 kts 158°
2026-05-07 21:44 41.40387 17.66797 35038 ft 493 kts 158°
2026-05-07 21:44 41.34495 17.71471 35037 ft 493 kts 158°
2026-05-07 21:45 41.28608 17.76131 35024 ft 492 kts 158°
2026-05-07 21:45 41.22717 17.80783 35036 ft 492 kts 158°
2026-05-07 21:46 41.16830 17.85423 35037 ft 493 kts 159°
2026-05-07 21:46 41.10924 17.90065 35045 ft 494 kts 159°
2026-05-07 21:47 41.05010 17.94705 35045 ft 495 kts 159°
2026-05-07 21:47 40.99097 17.99335 35044 ft 495 kts 159°
2026-05-07 21:48 40.93268 18.03892 35031 ft 495 kts 159°
2026-05-07 21:48 40.87331 18.08523 35043 ft 495 kts 159°
2026-05-07 21:49 40.81401 18.13138 35044 ft 495 kts 159°
2026-05-07 21:49 40.75459 18.17754 35034 ft 495 kts 159°
2026-05-07 21:50 40.69528 18.22352 35028 ft 494 kts 160°
2026-05-07 21:50 40.63644 18.26903 35033 ft 493 kts 160°
2026-05-07 21:51 40.57804 18.31723 35039 ft 499 kts 155°
2026-05-07 21:51 40.52094 18.36933 35041 ft 499 kts 155°
2026-05-07 21:52 40.46397 18.42143 35032 ft 499 kts 155°
2026-05-07 21:52 40.40685 18.47321 35030 ft 499 kts 155°
2026-05-07 21:53 40.34960 18.52481 35045 ft 500 kts 155°
2026-05-07 21:53 40.29253 18.57612 35041 ft 501 kts 155°
2026-05-07 21:54 40.23492 18.62784 35011 ft 501 kts 155°
2026-05-07 21:54 40.17732 18.67947 35033 ft 502 kts 155°
2026-05-07 21:55 40.11972 18.73098 35033 ft 502 kts 155°
2026-05-07 21:55 40.06202 18.78247 35021 ft 503 kts 155°
2026-05-07 21:56 40.00419 18.83397 35023 ft 503 kts 155°
2026-05-07 21:56 39.94953 18.88254 35027 ft 504 kts 154°
2026-05-07 21:57 39.89146 18.93407 35028 ft 506 kts 154°
2026-05-07 21:57 39.83322 18.98564 35025 ft 507 kts 154°
2026-05-07 21:58 39.77719 19.04001 35032 ft 513 kts 149°
2026-05-07 21:58 39.72145 19.09802 35014 ft 514 kts 149°
2026-05-07 21:59 39.66563 19.15611 35022 ft 514 kts 150°
2026-05-07 21:59 39.60970 19.21384 35027 ft 514 kts 150°
2026-05-07 22:00 39.55352 19.27152 35032 ft 515 kts 150°
2026-05-07 22:00 39.49733 19.32905 35034 ft 515 kts 150°
2026-05-07 22:01 39.44113 19.38650 35022 ft 515 kts 150°
2026-05-07 22:01 39.38530 19.44348 35032 ft 514 kts 150°
2026-05-07 22:02 39.32912 19.50068 35038 ft 514 kts 150°
2026-05-07 22:02 39.27292 19.55776 35042 ft 514 kts 150°
2026-05-07 22:03 39.21663 19.61482 35019 ft 514 kts 150°
2026-05-07 22:03 39.16033 19.67178 35036 ft 514 kts 150°
2026-05-07 22:04 39.10404 19.72862 35038 ft 514 kts 150°
2026-05-07 22:04 39.04808 19.78500 35041 ft 514 kts 150°
2026-05-07 22:05 38.99193 19.84145 35037 ft 515 kts 150°
2026-05-07 22:05 38.93539 19.89816 35047 ft 516 kts 150°
2026-05-07 22:06 38.87868 19.95492 35050 ft 517 kts 150°
2026-05-07 22:06 38.83224 20.00134 35048 ft 518 kts 150°
2026-05-07 22:07 38.76593 20.06748 35044 ft 519 kts 150°
2026-05-07 22:07 38.71853 20.11467 35046 ft 519 kts 150°
2026-05-07 22:08 38.66149 20.17133 35045 ft 518 kts 149°
2026-05-07 22:08 38.60445 20.22786 35053 ft 519 kts 150°
2026-05-07 22:09 38.54724 20.28445 35051 ft 520 kts 150°
2026-05-07 22:09 38.48983 20.34112 35055 ft 521 kts 150°
2026-05-07 22:10 38.43277 20.39734 35037 ft 522 kts 150°
2026-05-07 22:10 38.37533 20.45382 35051 ft 521 kts 150°
2026-05-07 22:11 38.31787 20.51020 35060 ft 521 kts 149°
2026-05-07 22:11 38.26041 20.56649 35057 ft 521 kts 149°
2026-05-07 22:12 38.20298 20.62256 35075 ft 520 kts 149°
2026-05-07 22:12 38.14552 20.67859 35065 ft 521 kts 149°
2026-05-07 22:13 38.08792 20.73462 35081 ft 522 kts 150°
2026-05-07 22:13 38.03045 20.79042 35086 ft 524 kts 149°
2026-05-07 22:14 37.97217 20.84690 35074 ft 526 kts 149°
2026-05-07 22:14 37.91429 20.90288 35091 ft 528 kts 149°
2026-05-07 22:15 37.85583 20.95931 35081 ft 529 kts 149°
2026-05-07 22:15 37.79838 21.01467 35093 ft 529 kts 149°
2026-05-07 22:16 37.73987 21.07093 35087 ft 528 kts 149°
2026-05-07 22:16 37.68136 21.12707 35093 ft 528 kts 149°
2026-05-07 22:17 37.62284 21.18309 35067 ft 527 kts 148°
2026-05-07 22:17 37.56464 21.23869 35099 ft 527 kts 148°
2026-05-07 22:18 37.47636 21.32281 35100 ft 529 kts 148°
2026-05-07 22:19 37.41805 21.37824 35103 ft 529 kts 148°
2026-05-07 22:19 37.35918 21.43409 35112 ft 530 kts 148°
2026-05-07 22:20 37.30030 21.48985 35106 ft 529 kts 148°
2026-05-07 22:20 37.24148 21.54544 35123 ft 529 kts 148°
2026-05-07 22:21 37.18272 21.60085 35129 ft 529 kts 148°
2026-05-07 22:21 37.12387 21.65623 35133 ft 528 kts 148°
2026-05-07 22:22 37.06504 21.71148 35117 ft 528 kts 148°
2026-05-07 22:22 37.00625 21.76660 35140 ft 528 kts 148°
2026-05-07 22:23 36.94746 21.82159 35133 ft 530 kts 148°
2026-05-07 22:23 36.88834 21.87686 35142 ft 532 kts 148°
2026-05-07 22:24 36.82887 21.93220 35144 ft 534 kts 148°
2026-05-07 22:24 36.76916 21.98770 35134 ft 535 kts 148°
2026-05-07 22:25 36.71057 22.04210 35135 ft 536 kts 148°
2026-05-07 22:25 36.65074 22.09755 35135 ft 535 kts 148°
2026-05-07 22:26 36.59138 22.15244 35129 ft 535 kts 147°
2026-05-07 22:26 36.53150 22.20769 35140 ft 536 kts 147°
2026-05-07 22:27 36.47164 22.26283 35140 ft 535 kts 148°